Regional Weather Roundup
Issued by NWS

Home | Current Version | Previous Version | Graphics & Text | Print | Product List | Glossary Off
Versions: 1 2 3 4 5 6 7 8 9 10 11 12 13 14 15 16 17 18 19 20 21 22 23 24 25 26 27 28 29 30 31 32 33 34 35 36 37 38 39 40 41 42 43 44 45 46 47 48 49 50

000
ASUS43 KLSX 122057
RWRMO

WEATHER SUMMARY FOR MISSOURI
NATIONAL WEATHER SERVICE SPRINGFIELD MO
300 PM CST TUE DEC 12 2017

NOTE: "FAIR" INDICATES FEW OR NO CLOUDS BELOW 12,000 FEET WITH NO
       SIGNIFICANT WEATHER AND/OR OBSTRUCTIONS TO VISIBILITY.
       CURRENT SKY AND/OR WEATHER CONDITIONS ARE NOT AVAILABLE FOR
       CHILLICOTHE AND FARMINGTON.

MOZ001>031-035>038-043-044-053-054-122200-
...NORTHERN AND WESTERN MISSOURI...

CITY           SKY/WX    TMP DP  RH WIND       PRES   REMARKS
KANSAS CTY INT MOSUNNY   39  21  48 W10       30.18F
LEE`S SUMMIT   SUNNY     39  16  39 W6        30.18F
ST JOSEPH      SUNNY     40  23  50 W10       30.18F
CHILLICOTHE      N/A     37   6  27 W7        30.18F

$$
MOZ066>068-077>081-088>096-101>105-122200-
...SOUTHWEST MISSOURI...

CITY           SKY/WX    TMP DP  RH WIND       PRES   REMARKS
SPRINGFIELD    SUNNY     40   9  28 W9        30.21F
JOPLIN         SUNNY     41   8  25 W10G22    30.26F

$$
MOZ032>034-039>042-045>050-055>058-069>072-122200-
...CENTRAL MISSOURI...

CITY           SKY/WX    TMP DP  RH WIND       PRES   REMARKS
COLUMBIA       NOT AVBL
JEFFERSON CITY SUNNY     37   2  22 W13       30.19F WCI  29
ROLLA          SUNNY     35   4  27 NW14      30.17F WCI  26
SEDALIA        SUNNY     39   5  24 W9        30.20F
WARRENSBURG    SUNNY     37   5  25 W9        30.20F

$$
MOZ051-052-059>065-122200-
...EAST CENTRAL MISSOURI...

CITY           SKY/WX    TMP DP  RH WIND       PRES   REMARKS
ST LOUIS INTL  PTSUNNY   36   4  26 W14       30.15F WCI  27

$$
MOZ072>076-082>087-097>100-106>115-122200-
...SOUTH CENTRAL AND SOUTHEAST MISSOURI...

CITY           SKY/WX    TMP DP  RH WIND       PRES   REMARKS
CAPE GIRARDEAU SUNNY     40   7  25 NW9G21    30.14F
POPLAR BLUFF   MOSUNNY   44   9  23 NW14G23   30.15F
WEST PLAINS    SUNNY     42   6  22 NW8G17    30.17F

$$


USA.gov is the U.S. government's official web portal to all federal, state and local government web resources and services.